Stillwater, OK

10:52 PM CST on February 22, 2017 (GMT -0600)
Stillwater Municipal

Weather History for KSWO - February, 2013

Change the Weather History Date:

Tuesday, February 12, 2013

  Actual Average Record
Temperature  
Mean Temperature 36 °F -  
Max Temperature 39 °F 51 °F 66 °F (2009)
Min Temperature 33 °F 29 °F 12 °F (2014)
Degree Days  
Heating Degree Days 29    
Moisture  
Dew Point 31 °F    
Average Humidity 86    
Maximum Humidity 100    
Minimum Humidity 55    
Precipitation  
Precipitation 0.32 in - - ()
Sea Level Pressure  
Sea Level Pressure 30.05 in    
Wind  
Wind Speed 9 mph (NNE)    
Max Wind Speed 14 mph    
Max Gust Speed -    
Visibility 5 miles    
Events Rain , Snow    
Averages and records for this station are not official NWS values.
T = Trace of Precipitation, MM = Missing Value Source: NWS Daily Summary

Daily Weather History Graph

Daily Weather History Graph

Search for Another Location

Airport or City:

Trip Planner

Search our weather history database for the weather conditions in past years. The results will help you decide how hot, cold, wet, or windy it might be!

Date:

Astronomy

Feb. 12, 2013 Rise Set
Actual Time 7:18 AM CST 6:06 PM CST
Civil Twilight 6:52 AM CST 6:33 PM CST
Nautical Twilight 6:22 AM CST 7:03 PM CST
Astronomical Twilight 5:52 AM CST 7:33 PM CST
Moon 8:23 AM CST (2/12) 9:01 PM CST (2/12)
Length of Visible Light 11h 40m
Length of Day
10h 48m
Waxing Crescent, 7% of the Moon is Illuminated
Feb 12
Waxing Crescent
Feb 17
First Quarter
Feb 25
Full
Mar 4
Last Quarter
Mar 11
New

Hourly Weather History & Observations

Time (CST) Temp. Windchill Dew Point Humidity Pressure Visibility Wind Dir Wind Speed Gust Speed Precip Events Conditions
12:53 AM 37.9 °F 32.1 °F 26.1 °F 62% 30.09 in 10.0 mi NE 8.1 mph - N/A   Mostly Cloudy
1:53 AM 36.0 °F 29.6 °F 26.1 °F 67% 30.09 in 10.0 mi NE 8.1 mph - N/A   Overcast
2:53 AM 34.0 °F 28.8 °F 27.0 °F 75% 30.08 in 10.0 mi NNE 5.8 mph - N/A   Mostly Cloudy
3:53 AM 37.0 °F 30.4 °F 27.0 °F 67% 30.09 in 10.0 mi NNE 9.2 mph - N/A   Overcast
4:53 AM 37.0 °F 29.8 °F 27.0 °F 67% 30.09 in 10.0 mi NNE 10.4 mph - N/A   Overcast
5:53 AM 37.9 °F 32.1 °F 27.0 °F 65% 30.09 in 10.0 mi NE 8.1 mph - N/A   Mostly Cloudy
6:53 AM 37.9 °F 30.9 °F 25.0 °F 60% 30.06 in 10.0 mi ENE 10.4 mph - N/A   Overcast
7:53 AM 39.0 °F 31.0 °F 24.1 °F 55% 30.05 in 10.0 mi NE 13.8 mph - N/A   Overcast
8:53 AM 39.0 °F 34.8 °F 26.1 °F 60% 30.10 in 10.0 mi ENE 5.8 mph - 0.00 in Rain Light Rain
9:31 AM 37.4 °F 32.1 °F 26.6 °F 65% 30.09 in 9.0 mi North 6.9 mph - 0.00 in Snow Light Snow
9:53 AM 37.0 °F 31.6 °F 30.0 °F 76% 30.08 in 6.0 mi NNE 6.9 mph - 0.01 in Snow Light Snow
10:33 AM 35.6 °F 28.0 °F 30.2 °F 81% 30.10 in 1.8 mi ENE 10.4 mph - 0.01 in Snow Light Snow
10:53 AM 34.0 °F 27.2 °F 30.9 °F 89% 30.12 in 1.2 mi NNE 8.1 mph - 0.02 in Snow Light Snow
11:23 AM 33.8 °F 26.4 °F 32.0 °F 93% 30.08 in 2.5 mi North 9.2 mph - 0.05 in Snow Light Snow
11:50 AM 33.8 °F 25.8 °F 32.0 °F 93% 30.07 in 3.0 mi NNE 10.4 mph - 0.07 in Snow Light Snow
11:53 AM 34.0 °F 27.2 °F 32.0 °F 92% 30.09 in 2.5 mi NNE 8.1 mph - 0.07 in Snow Light Snow
12:10 PM 33.8 °F 26.4 °F 33.8 °F 100% 30.06 in 3.0 mi NE 9.2 mph - 0.00 in Snow Light Snow
12:19 PM 33.8 °F 27.0 °F 33.8 °F 100% 30.05 in 2.5 mi NE 8.1 mph - 0.01 in Snow Light Snow
12:35 PM 35.6 °F 28.6 °F 33.8 °F 93% 30.04 in 4.0 mi NE 9.2 mph - 0.02 in Snow Light Snow
12:48 PM 35.6 °F 28.0 °F 33.8 °F 93% 30.03 in 3.0 mi NE 10.4 mph - 0.04 in Snow Light Snow
12:53 PM 36.0 °F 27.1 °F 34.0 °F 93% 30.04 in 4.0 mi NE 13.8 mph - 0.04 in Snow Light Snow
1:33 PM 37.4 °F 30.8 °F 35.6 °F 93% 30.02 in 8.0 mi NNE 9.2 mph - 0.01 in Rain Light Rain
1:43 PM 37.4 °F 30.3 °F 35.6 °F 93% 30.01 in 6.0 mi North 10.4 mph - 0.01 in Rain Light Rain
1:53 PM 37.0 °F 28.9 °F 35.1 °F 93% 30.02 in 6.0 mi NNE 12.7 mph - 0.01 in Rain Light Rain
2:53 PM 37.0 °F 29.8 °F 35.1 °F 93% 30.01 in 4.0 mi NNE 10.4 mph - 0.03 in Rain Light Rain
3:14 PM 37.4 °F 30.8 °F 35.6 °F 93% 29.99 in 9.0 mi NE 9.2 mph - 0.00 in Rain Light Rain
4:17 PM 37.4 °F 29.8 °F 35.6 °F 93% 29.99 in 5.0 mi North 11.5 mph - 0.01 in Rain Light Rain
4:53 PM 37.0 °F 29.3 °F 35.1 °F 93% 30.00 in 6.0 mi North 11.5 mph - 0.02 in Rain Light Rain
5:18 PM 37.4 °F 30.8 °F 35.6 °F 93% 29.99 in 7.0 mi North 9.2 mph - 0.01 in Rain Light Rain
5:53 PM 35.1 °F 26.9 °F 33.1 °F 92% 30.02 in 4.0 mi North 11.5 mph - 0.06 in Snow Light Snow
6:00 PM 33.8 °F 26.4 °F 32.0 °F 93% 30.01 in 3.0 mi North 9.2 mph - 0.01 in Snow Light Snow
6:09 PM 33.8 °F 26.4 °F 32.0 °F 93% 30.01 in 2.0 mi NNW 9.2 mph - 0.02 in Snow Light Snow
6:53 PM 33.1 °F 24.4 °F 32.0 °F 96% 30.04 in 3.0 mi NNW 11.5 mph - 0.03 in Snow Light Snow
7:21 PM 33.8 °F 26.4 °F 32.0 °F 93% 30.02 in 2.5 mi North 9.2 mph - 0.01 in Snow Light Snow
7:36 PM 33.8 °F 26.4 °F 32.0 °F 93% 30.03 in 3.0 mi NNW 9.2 mph - 0.01 in Snow Light Snow
7:53 PM 33.1 °F 25.5 °F 32.0 °F 96% 30.05 in 3.0 mi North 9.2 mph - 0.01 in Snow Light Snow
8:53 PM 33.1 °F 26.9 °F 32.0 °F 96% 30.05 in 3.0 mi North 6.9 mph - 0.01 in Snow Light Snow
9:53 PM 33.1 °F 26.9 °F 32.0 °F 96% 30.06 in 3.0 mi NNW 6.9 mph - 0.01 in Snow Light Snow
10:10 PM 33.8 °F 28.6 °F 32.0 °F 93% 30.05 in 4.0 mi NNW 5.8 mph - 0.00 in Snow Light Snow
10:53 PM 33.1 °F - 33.1 °F 100% 30.05 in 5.0 mi Calm Calm - 0.00 in   Overcast
11:14 PM 33.8 °F - 32.0 °F 93% 30.03 in 5.0 mi Calm Calm - N/A   Overcast
11:53 PM 33.1 °F 28.7 °F 32.0 °F 96% 30.06 in 4.0 mi West 4.6 mph - N/A   Overcast